Regional Weather Roundup
Issued by NWS Austin/San Antonio, TX

Current Version | Previous Version | Text Only | Print | Product List | Glossary On
Versions: 1 2 3 4 5 6 7 8 9 10 11 12 13 14 15 16 17 18 19 20 21 22 23 24 25 26 27 28 29 30 31 32 33 34 35 36 37 38 39 40 41 42 43 44 45 46 47 48 49 50
000
ASUS44 KEWX 130501
RWREWX
SOUTH TEXAS REGIONAL WEATHER ROUNDUP
NATIONAL WEATHER SERVICE AUSTIN/SAN ANTONIO TX
1200 AM CDT SUN JUN 13 2021

NOTE: "FAIR" INDICATED FEW OR NO CLOUDS BELOW 12,000 FEET WITH NO
SIGNIFICANT WEATHER AND/OR OBSTRUCTIONS TO VISIBILITY.

* - THESE STATIONS ARE NOT NWS OR FAA STATIONS...AND ARE NOT SUBJECT
    TO NWS AND FAA QUALITY CONTROL.

TXZ171-172-183>190-130600-
TEXAS HILL COUNTRY AND EDWARDS PLATEAU

CITY           SKY/WX    TMP DP  RH WIND       PRES   REMARKS
JUNCTION       CLEAR     80  67  64 CALM      30.02R
*LLANO         CLEAR     75  70  83 CALM      29.96F
BURNET         CLEAR     78  70  76 CALM      29.99S
*HORSESHOE BAY CLEAR     78  70  76 S5        29.98S
*LAGO VISTA    CLEAR     81  70  70 S5        29.98S
*KERRVILLE     CLEAR     76  71  83 CALM      30.02R
*FREDERICKSBRG CLEAR     75  67  75 CALM      30.01R
*ROCKSPRINGS     N/A     77  68  73 MISG      30.08S
*BOERNE        CLEAR     75  72  88 CALM      30.00S
*CASTROVILLE   CLEAR     81  73  76 S5        29.98S
HONDO          CLEAR     79  72  79 SE9       29.97S
*UVALDE        CLEAR     78  75  88 SE7       29.99R
DEL RIO        CLEAR     88  70  55 E13G23    29.94R HX  93
*LAUGHLIN AFB  NOT AVBL
*SPOFFORD      CLEAR     83  71  66 E10       29.89R
*EAGLE PASS    CLEAR     84  68  58 E9G15     29.93R
CARRIZO SPRGS  CLEAR    N/A N/A N/A SE9       29.93R
$$

TXZ173-191>194-202-209-217>225-228-130600-
CENTRAL AND SOUTH CENTRAL TEXAS

CITY           SKY/WX    TMP DP  RH WIND       PRES   REMARKS
GEORGETOWN     CLEAR     76  71  85 SW5       29.96F
*TAYLOR        CLEAR     75 N/A N/A CALM      29.93F
AUSTIN/BERGSTM PTCLDY    77  73  87 S6        29.93S
AUSTIN/MABRY   CLEAR     81  70  69 CALM      29.95S
*PFLUGERVILLE  CLEAR     77  73  88 CALM      29.93S
SAN MARCOS     CLEAR     80  77  90 S6        29.96S
NEW BRAUNFELS  CLEAR     79  73  82 S9        29.94S
*RANDOLPH AFB  CLEAR     80  73  80 S7        29.95S
*SEGUIN        CLEAR     79  73  82 S8        29.99S
SAN ANTONIO    PTCLDY    82  71  69 S9        29.97R
STINSON FIELD  CLEAR     82  72  71 S7        29.94S
*KELLY FIELD   CLEAR     79  73  82 S8        29.95R
*PLEASANTON    CLEAR     80  73  79 S3        29.96S
*KENEDY        CLEAR     78  74  88 S5        29.96F
*LA GRANGE     CLEAR     82  78  89 S5        29.92S HX  91
*GIDDINGS      CLEAR     80  75  85 SW3       29.95R
*GONZALES      CLEAR     81  76  84 S7        29.94S
$$

TXZ163>164-176>182-195>201-210>213-226-227-235-130600-
SOUTHEAST TEXAS

CITY           SKY/WX    TMP DP  RH WIND       PRES   REMARKS
COLLEGE STN    CLEAR     83  74  74 CALM      29.93S
*BRYAN         CLEAR     78  76  96 NE3       29.95S
*CALDWELL      CLEAR     77  75  92 CALM      29.94R
*CROCKETT      CLEAR     77  77 100 CALM      29.94S
*BRENHAM       CLEAR     82  77  84 CALM      29.94S HX  91
HUNTSVILLE     MOCLDY    82  81  96 CALM      29.93F HX  95
CONROE         CLOUDY    83  75  77 SW3       29.94R HX  90
HOUSTON BUSH   CLOUDY    84  74  71 SW8       29.93R HX  91
HOUSTON HOBBY  MOCLDY    83  74  74 SW6       29.92F
*HOUSTON SW AP PTCLDY    79  77  92 CALM      29.94S
PEARLAND       PTCLDY    81  75  82 CALM      29.94S
HOUSTON HOOKS  PTCLDY    83  75  77 SW5       29.94R HX  90
ELLINGTON FLD  PTCLDY    81  73  78 SW7       29.93S
SUGAR LAND     PTCLDY    82  75  79 S5        29.93S
*HOUSTON EXEC    N/A     81  77  89 S7        29.94S
*CLEVELAND MUN PTCLDY    79  78  97 CALM      29.94S
*WHARTON       CLEAR     77  73  87 SW3       29.94S
*COLUMBUS      FAIR      78  76  92 CALM      29.94S
*EAGLE LAKE    NOT AVBL
$$

TXZ214>216-236>238-130600-
THE UPPER TEXAS COAST

CITY           SKY/WX    TMP DP  RH WIND       PRES   REMARKS
*ORANGE        PTCLDY    82  75  81 CALM      29.95S
PORT ARTHUR    PTCLDY    78  77  96 CALM      29.93S
GALVESTON      CLEAR     83  75  77 SW6       29.93S HX  90
ANGLETON       CLEAR     78  74  87 CALM      29.93R
*BAY CITY      NOT AVBL
PALACIOS       CLEAR     83  77  82 S14       29.92F HX  92
$$

TXZ229>234-239>247-130600-
TEXAS COASTAL BEND AND RIO GRANDE PLAINS

CITY           SKY/WX    TMP DP  RH WIND       PRES   REMARKS
VICTORIA       CLEAR     79  75  87 S7        29.94F
*BEEVILLE      PTCLDY    78  78 100 CALM      29.95S
ROCKPORT       CLEAR     82  77  84 S6        29.95R HX  90
*PORT ARANSAS  PTCLDY    82  77  83 S8        29.96S HX  90
*PORT LAVACA   CLEAR     79  75  87 S6        29.93F
*INGLESIDE     CLEAR     81  77  89 S8        29.94S
CORPUS CHRISTI PTCLDY    78  77  96 S6        29.95S
CORPUS NAS     MOCLDY    83  77  82 S9        29.95R HX  92
*ROBSTOWN      CLEAR     81  79  93 S6        29.95S HX  91
ALICE          PTCLDY    77  76  96 SE5       29.95R
KINGSVILLE NAS PTCLDY    78  76  93 SE7       29.94F
COTULLA        NOT AVBL
LAREDO         CLEAR     85  71  63 SE14      29.93S HX  90
$$

TXZ248>255-130600-
DEEP SOUTH TEXAS

CITY           SKY/WX    TMP DP  RH WIND       PRES   REMARKS
BROWNSVILLE    CLEAR     79  73  82 E3        29.94F
PORT ISABEL    CLEAR     79  75  87 SE6       29.95R
HARLINGEN      CLEAR     76  76 100 SE5       29.94S
*HEBBRONVILLE  CLEAR     78  66  66 SE8       29.98R
MCALLEN        CLEAR     78  73  84 SE10      29.95R
*WESLACO       MOCLDY    79  74  84 SE5       29.94  HAZE
FALFURRIAS     PTCLDY    75  74  97 SE5       29.95S
EDINBURG       CLEAR     78  76  94 SE5       29.95S
*ZAPATA        CLEAR     85  71  64 SE6       29.96R HX  90
$$

TXZ213>215-236>238-242>244-246-247-251-254-255-130600-
CMAN STATIONS

STATION/POSITION TIME  TEMP    WIND        PRES    WAVE
                       AIR SEA DIR/SP/G            HT/PER
                 (UTC) (F)     (DEG/KT/KT) (MB)    (FT/S)
NORTH JETTY/GLS  0430   85 85  240/  8/  9 1012.4
EAGLE POINT      0430   82 88  260/  4/  6 1013.1
MORGANS POINT    0430   83 84  240/  6/  9 1013.7
MISSION/ARANSAS  0400   83     140/ 12     1015.0
PORT O`CONNOR    0430   82 90  200/  6/  7 1013.7
PORT ARANSAS     0400   82 87  140/ 12/ 12 1013.9
MALAQUITE BEACH  0430   82     130/ 11/ 12   N/A
BAFFIN BAY       0430   81 89  130/ 10/ 12 1013.8
PORT ISABEL      0430   81 82  120/  6/  7 1015.2
$$



USA.gov is the U.S. government's official web portal to all federal, state and local government web resources and services.